Weather History for Oxford, CT

Change the Weather History Date:

Tuesday, October 15, 2013

  Actual Average Record
Temperature  
Mean Temperature 58 °F -  
Max Temperature 69 °F 57 °F 73 °F (2000)
Min Temperature 46 °F 39 °F 28 °F (1999)
Degree Days  
Heating Degree Days 8    
Growing Degree Days 8 (Base 50)    
Moisture  
Dew Point 45 °F    
Average Humidity 74    
Maximum Humidity 87    
Minimum Humidity 47    
Precipitation  
Precipitation 0.00 in - - ()
Sea Level Pressure  
Sea Level Pressure 30.23 in    
Wind  
Wind Speed 2 mph (ENE)    
Max Wind Speed 12 mph    
Max Gust Speed -    
Visibility 10 miles    
Events      
Averages and records for this station are not official NWS values.
T = Trace of Precipitation, MM = Missing Value Source: NWS Daily Summary

Daily Weather History Graph

Daily Weather History Graph

Search for Another Location

Airport:

Trip Planner

Search our weather history database for the weather conditions in past years. The results will help you decide how hot, cold, wet, or windy it might be!

Date:

Astronomy

Oct. 15, 2013 Rise Set
Actual Time 7:04 AM EDT 6:11 PM EDT
Civil Twilight 6:36 AM EDT 6:39 PM EDT
Nautical Twilight 6:04 AM EDT 7:11 PM EDT
Astronomical Twilight 5:32 AM EDT 7:43 PM EDT
Moon 4:16 PM EDT (10/15) 3:21 AM EDT (10/15)
Length of Visible Light 12h 02m
Length of Day
11h 06m
Waxing Gibbous, 87% of the Moon is Illuminated
Oct 15
Waxing Gibbous
Oct 18
Full
Oct 26
Last Quarter
Nov 3
New
Nov 10
First Quarter

Hourly Weather History & Observations

Time (EDT) Temp. Windchill Dew Point Humidity Pressure Visibility Wind Dir Wind Speed Gust Speed Precip Events Conditions
12:15 AM 46.4 °F - 42.8 °F 87% 30.29 in 10.0 mi Calm Calm - N/A   Clear
12:35 AM 46.4 °F - 41.0 °F 81% 30.29 in 10.0 mi Calm Calm - N/A   Clear
12:55 AM 46.4 °F 45.2 °F 42.8 °F 87% 30.29 in 10.0 mi North 3.5 mph - N/A   Mostly Cloudy
1:15 AM 48.2 °F - 44.6 °F 87% 30.29 in 10.0 mi Calm Calm - N/A   Overcast
1:35 AM 48.2 °F - 44.6 °F 87% 30.28 in 10.0 mi Calm Calm - N/A   Overcast
1:55 AM 48.2 °F - 44.6 °F 87% 30.28 in 10.0 mi Calm Calm - N/A   Overcast
2:15 AM 48.2 °F - 44.6 °F 87% 30.27 in 10.0 mi Calm Calm - N/A   Overcast
2:35 AM 48.2 °F - 44.6 °F 87% 30.27 in 10.0 mi Calm Calm - N/A   Partly Cloudy
2:55 AM 48.2 °F - 42.8 °F 82% 30.26 in 10.0 mi Calm Calm - N/A   Clear
3:15 AM 46.4 °F 45.2 °F 42.8 °F 87% 30.25 in 10.0 mi North 3.5 mph - N/A   Partly Cloudy
3:35 AM 46.4 °F - 42.8 °F 87% 30.25 in 10.0 mi Calm Calm - N/A   Mostly Cloudy
3:55 AM 48.2 °F - 44.6 °F 87% 30.25 in 10.0 mi Calm Calm - N/A   Overcast
4:15 AM 50.0 °F - 44.6 °F 82% 30.25 in 10.0 mi North 3.5 mph - N/A   Overcast
4:35 AM 51.8 °F - 46.4 °F 82% 30.26 in 10.0 mi North 4.6 mph - N/A   Overcast
4:55 AM 51.8 °F - 46.4 °F 82% 30.26 in 10.0 mi NNW 4.6 mph - N/A   Overcast
5:15 AM 51.8 °F - 46.4 °F 82% 30.25 in 10.0 mi Calm Calm - N/A   Overcast
5:35 AM 51.8 °F - 46.4 °F 82% 30.26 in 10.0 mi North 3.5 mph - N/A   Overcast
5:45 AM 51.8 °F - 46.4 °F 82% 30.26 in 10.0 mi North 4.6 mph - N/A   Overcast
6:45 AM 50.0 °F - 44.6 °F 82% 30.25 in 10.0 mi Calm Calm - N/A   Scattered Clouds
7:45 AM 51.8 °F - 46.4 °F 82% 30.25 in 10.0 mi NE 3.5 mph - N/A   Mostly Cloudy
8:45 AM 55.4 °F - 50.0 °F 82% 30.26 in 10.0 mi Calm Calm - N/A   Scattered Clouds
9:45 AM 59.0 °F - 50.0 °F 72% 30.25 in 10.0 mi Variable 3.5 mph - N/A   Mostly Cloudy
10:45 AM 60.8 °F - 51.8 °F 72% 30.25 in 10.0 mi Variable 4.6 mph - N/A   Mostly Cloudy
11:45 AM 64.4 °F - 50.0 °F 59% 30.24 in 10.0 mi Variable 4.6 mph - N/A   Mostly Cloudy
12:45 PM 66.2 °F - 50.0 °F 56% 30.22 in 10.0 mi Variable 4.6 mph - N/A   Partly Cloudy
1:45 PM 66.2 °F - 50.0 °F 56% 30.22 in 10.0 mi South 4.6 mph - N/A   Mostly Cloudy
2:45 PM 69.8 °F - 51.8 °F 53% 30.19 in 6.0 mi South 6.9 mph - N/A   Clear
3:45 PM 69.8 °F - 51.8 °F 53% 30.19 in 10.0 mi SE 6.9 mph - N/A   Clear
4:45 PM 64.4 °F - 44.6 °F 49% 30.16 in 10.0 mi South 11.5 mph - N/A   Clear
6:55 PM 57.2 °F - 37.4 °F 48% 30.20 in 10.0 mi SSE 3.5 mph - N/A   Clear
7:55 PM 55.4 °F - 35.6 °F 47% 30.20 in 10.0 mi Calm Calm - N/A   Clear
8:45 PM 51.8 °F - 39.2 °F 62% 30.20 in 10.0 mi Calm Calm - N/A   Partly Cloudy
9:15 PM 50.0 °F - 39.2 °F 66% 30.19 in 10.0 mi Calm Calm - N/A   Clear
9:35 PM 50.0 °F - 39.2 °F 66% 30.20 in 10.0 mi East 3.5 mph - N/A   Clear
9:55 PM 48.2 °F - 41.0 °F 76% 30.20 in 10.0 mi East 3.5 mph - N/A   Clear
10:15 PM 50.0 °F - 41.0 °F 71% 30.19 in 10.0 mi East 3.5 mph - N/A   Clear
10:35 PM 51.8 °F - 42.8 °F 71% 30.19 in 10.0 mi East 4.6 mph - N/A   Clear
10:55 PM 51.8 °F - 42.8 °F 71% 30.18 in 10.0 mi East 4.6 mph - N/A   Clear
11:15 PM 51.8 °F - 42.8 °F 71% 30.17 in 10.0 mi East 4.6 mph - N/A   Clear
11:35 PM 51.8 °F - 44.6 °F 76% 30.17 in 10.0 mi East 3.5 mph - N/A   Clear
11:55 PM 51.8 °F - 44.6 °F 76% 30.16 in 10.0 mi East 4.6 mph - N/A   Clear